User: anonymous   Login
Location: Aiyekoto
(8.4333°N, 4.3667°E)
Time: 12:24:41
(UTC+00:00)
Language:

ADEOS - Orbit

View from above orbital plane
View from above orbital plane
View from above satellite
View from above satellite

Ground track
Ground track

The orbit data is extracted from the following two-line orbital elements,

1 24277U 96046A   21137.97496700 -.00000006  00000-0  15748-4 0  9999
2 24277  98.9125 126.2331 0002205 103.3008 256.8419 14.29466591290621
Epoch (UTC): 17 May 2021 23:23:57
Eccentricity: 0.0002205
inclination: 98.9125°
perigee height: 792 km
apogee height: 795 km
right ascension of ascending node: 126.2331°
argument of perigee: 103.3008°
revolutions per day: 14.29466591
mean anomaly at epoch: 256.8419°
orbit number at epoch: 29062

The dashed part of the orbit path shows where the satellite is in the earth's shadow,  

DLR